�������r�C�����j�^�v���󋵏��
Date,Time,5�C6���@���p�r�C��,����,����(m/s)
2021/08/01,00:00,4.0,�k�k��,5.3
2021/08/01,00:10,3.9,�k�k��,5.5
2021/08/01,00:20,3.9,�k�k��,5.1
2021/08/01,00:30,3.9,�k�k��,4.7
2021/08/01,00:40,3.8,�k�k��,4.9
2021/08/01,00:50,3.8,�k�k��,5.2
2021/08/01,01:00,3.9,�k�k��,4.2
2021/08/01,01:10,3.8,�k��,3.0
2021/08/01,01:20,3.9,�k��,3.5
2021/08/01,01:30,3.8,�k��,3.1
2021/08/01,01:40,3.8,�k��,2.6
2021/08/01,01:50,3.8,���k��,3.1
2021/08/01,02:00,4.0,���k��,3.6
2021/08/01,02:10,3.9,�k��,3.2
2021/08/01,02:20,3.7,�k��,3.2
2021/08/01,02:30,3.8,���k��,2.0
2021/08/01,02:40,3.7,���k��,2.5
2021/08/01,02:50,4.0,���k��,1.7
2021/08/01,03:00,3.9,�k�k��,0.9
2021/08/01,03:10,3.6,�k�k��,1.2
2021/08/01,03:20,4.1,-,CALM
2021/08/01,03:30,3.9,-,CALM
2021/08/01,03:40,4.0,��쓌,0.6
2021/08/01,03:50,3.8,��,1.1
2021/08/01,04:00,3.9,��,2.9
2021/08/01,04:10,3.8,��쐼,3.4
2021/08/01,04:20,3.9,��쐼,3.5
2021/08/01,04:30,3.7,��,3.6
2021/08/01,04:40,3.8,��,3.7
2021/08/01,04:50,3.8,��쐼,4.0
2021/08/01,05:00,3.8,��쐼,4.3
2021/08/01,05:10,3.8,��,3.9
2021/08/01,05:20,3.8,��쐼,3.1
2021/08/01,05:30,3.8,�쐼,3.4
2021/08/01,05:40,4.0,�쐼,2.8
2021/08/01,05:50,3.8,��쐼,2.6
2021/08/01,06:00,3.8,�쐼,1.5
2021/08/01,06:10,3.9,�쐼,1.5
2021/08/01,06:20,3.7,-,CALM
2021/08/01,06:30,3.8,-,CALM
2021/08/01,06:40,3.8,-,CALM
2021/08/01,06:50,3.8,�k�k��,1.4
2021/08/01,07:00,3.8,��,0.6
2021/08/01,07:10,3.8,��,0.9
2021/08/01,07:20,3.9,-,CALM
2021/08/01,07:30,3.9,-,CALM
2021/08/01,07:40,4.0,��,0.6
2021/08/01,07:50,3.8,��쓌,0.9
2021/08/01,08:00,3.9,�쓌,1.7
2021/08/01,08:10,3.9,�쓌,2.3
2021/08/01,08:20,3.8,�쓌,3.3
2021/08/01,08:30,3.7,�쓌,3.3
2021/08/01,08:40,3.7,�쓌,2.0
2021/08/01,08:50,3.8,��쓌,2.3
2021/08/01,09:00,3.9,��,3.4
2021/08/01,09:10,3.9,��쓌,3.7
2021/08/01,09:20,3.7,��쓌,3.6
2021/08/01,09:30,3.9,��쓌,4.1
2021/08/01,09:40,3.9,��쓌,5.3
2021/08/01,09:50,3.7,��쓌,6.4
2021/08/01,10:00,3.8,��쓌,5.6
2021/08/01,10:10,3.8,��쓌,6.6
2021/08/01,10:20,3.9,��쓌,7.3
2021/08/01,10:30,3.9,��쓌,7.6
2021/08/01,10:40,4.0,��쓌,7.4
2021/08/01,10:50,3.9,��,7.8
2021/08/01,11:00,3.9,��,7.0
2021/08/01,11:10,3.9,��쓌,8.8
2021/08/01,11:20,3.8,��,6.7
2021/08/01,11:30,3.7,��,7.1
2021/08/01,11:40,3.8,��쓌,6.9
2021/08/01,11:50,3.9,��쓌,7.0
2021/08/01,12:00,3.9,��,6.1
2021/08/01,12:10,4.1,��,6.1
2021/08/01,12:20,3.8,��,5.3
2021/08/01,12:30,4.0,��쓌,7.1
2021/08/01,12:40,3.8,��,7.8
2021/08/01,12:50,3.9,��,6.1
2021/08/01,13:00,3.8,��,6.7
2021/08/01,13:10,4.0,��,8.9
2021/08/01,13:20,3.9,��,8.2
2021/08/01,13:30,3.7,��,8.4
2021/08/01,13:40,3.8,��,6.2
2021/08/01,13:50,3.9,��,6.9
2021/08/01,14:00,3.6,��,6.5
2021/08/01,14:10,3.7,��,6.4
2021/08/01,14:20,4.1,��,6.4
2021/08/01,14:30,3.9,��,5.7
2021/08/01,14:40,3.7,��,6.1
2021/08/01,14:50,3.8,��,6.6
2021/08/01,15:00,3.6,��,5.9
2021/08/01,15:10,3.8,��,5.9
2021/08/01,15:20,3.9,��,7.4
2021/08/01,15:30,3.9,��,8.1
2021/08/01,15:40,3.8,��,7.4
2021/08/01,15:50,3.8,��쓌,8.3
2021/08/01,16:00,3.8,��쓌,10.6
2021/08/01,16:10,3.7,��쓌,10.2
2021/08/01,16:20,3.8,��,9.9
2021/08/01,16:30,3.8,��,10.3
2021/08/01,16:40,3.8,��,10.6
2021/08/01,16:50,3.8,��,8.8
2021/08/01,17:00,3.8,��쐼,5.5
2021/08/01,17:10,3.7,��,1.5
2021/08/01,17:20,3.8,��쓌,0.6
2021/08/01,17:30,3.9,�k,2.8
2021/08/01,17:40,3.8,���k��,2.0
2021/08/01,17:50,3.8,�k,0.9
2021/08/01,18:00,3.8,�k��,1.1
2021/08/01,18:10,3.8,��쓌,1.7
2021/08/01,18:20,3.9,��쓌,1.5
2021/08/01,18:30,3.9,��쓌,3.5
2021/08/01,18:40,3.8,��,2.8
2021/08/01,18:50,4.1,��,3.1
2021/08/01,19:00,3.8,��쐼,4.5
2021/08/01,19:10,3.8,��,6.4
2021/08/01,19:20,3.7,��,6.3
2021/08/01,19:30,3.8,��,5.2
2021/08/01,19:40,3.8,��,4.0
2021/08/01,19:50,3.9,��,3.9
2021/08/01,20:00,3.8,��,6.4
2021/08/01,20:10,3.9,��,8.1
2021/08/01,20:20,3.8,��,7.4
2021/08/01,20:30,3.7,��,6.4
2021/08/01,20:40,3.8,��,6.9
2021/08/01,20:50,3.8,��,7.9
2021/08/01,21:00,4.0,��,7.4
2021/08/01,21:10,3.8,��,6.8
2021/08/01,21:20,3.7,��,6.1
2021/08/01,21:30,3.9,��,6.2
2021/08/01,21:40,3.7,��,6.2
2021/08/01,21:50,3.9,��,7.1
2021/08/01,22:00,3.8,��,7.4
2021/08/01,22:10,3.9,��,6.5
2021/08/01,22:20,4.0,��쐼,6.7
2021/08/01,22:30,4.0,��,6.0
2021/08/01,22:40,3.8,��,6.1
2021/08/01,22:50,3.9,��쐼,4.9
2021/08/01,23:00,3.8,��,4.5
2021/08/01,23:10,3.8,��,3.7
2021/08/01,23:20,3.8,��,4.2
2021/08/01,23:30,3.9,��,5.1
2021/08/01,23:40,4.0,��,5.5
2021/08/01,23:50,3.9,��,5.2
